Starlink 31201

operational
NORAD ID: 58870 Int'l Des: 2024-019 Owner: SPXS Country: US Constellation: starlink
LEOCIRCULAR

Über Starlink 31201

Beschreibung wird geladen...

Live-Position

3D-Globus wird geladen...

Nächste Überflüge

Höhenverlauf

Altitude vs Time

uPlot chart will show altitude changes over time

Zweizeiliger Elementsatz

1 58870U 24019T 25307.86346038 .00000781 00000-0 37915-4 0 9994
2 58870 43.0031 239.1232 0000615 279.8295 80.2487 15.27575977 99829
Epoch: 3. Nov. 2025 • Age: 17 hours

Aktueller Status

Höhe 484.3 km
Geschwindigkeit 7.62 km/s
Subsatellitenpunkt -8.49°S, 178.45°W
Startdatum 29. Jan. 2024
Alter 1.7 years
Typ internet

Technische Details

Klassifizierung Payload
Masse 730.00 kg
Trockenmasse 700.00 kg
Gesamtmasse 730.00 kg
Länge 0.30 m
Durchmesser 4.10 m
Spannweite 29.00 m
Form Box + pan
Hersteller SPXS
Bus-Typ Starlink V2M
Phasenstatus In Orbit
Besitzer/Staat SPXS/US

Große Konstellationen

Loading constellations...